Date String (YYYY-MM-DD hh:mm:ss) UTC,Instrument flags,Ambient pressure (hPa),Sample flow (lpm),Bypass flow (lpm),Sample temperature (°C),Ambient temperature (°C),ASC tube jacket temperature (°C),LED temperature (°C),Box temperature (°C),Sample RH (%),Span deviation,Mass concentration (μg/m³),Mass concentration (μg/m³),Mass concentration (μg/m³)
DateTimeUTC,F1_M11,P_M11,Q1_M11,Q2_M11,T1_M11,T2_M11,T3_M11,T4_M11,T5_M11,U1_M11,ZSPAN_M11,X0_M11,X2_M11,X1_M11
2021-10-31 23:00:00,,0829.3,5.00,0.00,25.9,25.0,00.0,34.9,27.7,16.6,0000.0,0009.41,0005.15,0004.52
2021-10-31 23:01:00,,0829.2,5.00,0.00,25.9,25.0,00.0,34.9,27.7,16.7,0000.0,0009.57,0005.20,0004.55
2021-10-31 23:02:00,,0829.3,5.01,0.00,25.9,25.0,00.0,34.9,27.7,16.7,0000.0,0009.56,0005.22,0004.57
2021-10-31 23:03:00,,0829.4,4.99,0.00,25.8,25.0,00.0,34.9,27.7,16.7,0000.0,0010.16,0005.26,0004.59
2021-10-31 23:04:00,,0829.5,4.99,0.00,25.9,25.0,00.0,34.9,27.7,16.7,0000.0,0010.75,0005.30,0004.61
2021-10-31 23:05:00,,0829.6,5.00,0.00,25.9,25.0,00.0,34.9,27.7,16.6,0000.0,0010.86,0005.32,0004.64
2021-10-31 23:06:00,,0829.8,5.00,0.00,25.9,25.1,00.0,34.9,27.7,16.7,0000.0,0010.49,0005.32,0004.66
2021-10-31 23:07:00,,0829.6,5.01,0.00,25.9,25.1,00.0,34.9,27.7,16.7,0000.0,0011.23,0005.32,0004.67
2021-10-31 23:08:00,,0829.6,4.99,0.00,25.9,25.1,00.0,34.9,27.7,16.6,0000.0,0011.57,0005.31,0004.68
2021-10-31 23:09:00,,0829.6,5.01,0.00,25.9,25.1,00.0,34.9,27.7,16.5,0000.0,0012.90,0005.31,0004.67
2021-10-31 23:10:00,,0829.7,5.01,0.00,25.9,25.1,00.0,34.9,27.7,16.5,0000.0,0012.99,0005.31,0004.65
2021-10-31 23:11:00,,0829.6,4.99,0.00,25.9,25.1,00.0,34.9,27.7,16.5,0000.0,0013.06,0005.31,0004.62
2021-10-31 23:12:00,,0829.6,5.01,0.00,25.9,25.1,00.0,34.9,27.8,16.5,0000.0,0014.07,0005.27,0004.59
2021-10-31 23:13:00,,0829.5,4.98,0.00,25.9,25.1,00.0,34.9,27.8,16.5,0000.0,0014.80,0005.30,0004.58
2021-10-31 23:14:00,,0829.6,5.00,0.00,25.9,25.1,00.0,34.9,27.8,16.5,0000.0,0014.49,0005.35,0004.59
2021-10-31 23:15:00,,0829.5,5.00,0.00,25.9,25.1,00.0,34.9,27.8,16.5,0000.0,0014.42,0005.36,0004.60
2021-10-31 23:16:00,,0829.5,5.00,0.00,25.9,25.1,00.0,34.9,27.8,16.5,0000.0,0014.69,0005.32,0004.59
2021-10-31 23:17:00,,0829.5,4.99,0.00,25.9,25.1,00.0,34.9,27.8,16.5,0000.0,0014.69,0005.30,0004.57
2021-10-31 23:18:00,,0829.5,5.00,0.00,26.0,25.1,00.0,34.9,27.8,16.5,0000.0,0014.41,0005.29,0004.58
2021-10-31 23:19:00,,0829.6,5.00,0.00,26.0,25.2,00.0,34.9,27.8,16.5,0000.0,0013.95,0005.30,0004.60
2021-10-31 23:20:00,,0829.6,5.00,0.00,26.0,25.2,00.0,34.9,27.8,16.5,0000.0,0012.69,0005.28,0004.60
2021-10-31 23:21:00,,0829.5,5.01,0.00,26.0,25.2,00.0,34.9,27.8,16.5,0000.0,0012.35,0005.28,0004.61
2021-10-31 23:22:00,,0829.5,5.00,0.00,26.0,25.2,00.0,34.9,27.9,16.4,0000.0,0012.22,0005.25,0004.61
2021-10-31 23:23:00,,0829.5,5.00,0.00,26.0,25.2,00.0,34.9,27.8,16.4,0000.0,0011.35,0005.28,0004.61
2021-10-31 23:24:00,,0829.3,5.00,0.00,26.0,25.2,00.0,34.9,27.8,16.4,0000.0,0010.46,0005.23,0004.62
2021-10-31 23:25:00,,0829.3,5.00,0.00,26.0,25.2,00.0,35.0,27.8,16.4,0000.0,0010.18,0005.20,0004.61
2021-10-31 23:26:00,,0829.2,4.99,0.00,26.0,25.2,00.0,35.0,27.8,16.4,0000.0,0010.24,0005.14,0004.60
2021-10-31 23:27:00,,0829.1,5.02,0.00,26.0,25.2,00.0,35.0,27.9,16.4,0000.0,0010.74,0005.19,0004.60
2021-10-31 23:28:00,,0829.1,4.99,0.00,26.0,25.2,00.0,35.0,27.9,16.5,0000.0,0010.61,0005.21,0004.60
2021-10-31 23:29:00,,0829.0,4.99,0.00,26.0,25.2,00.0,35.0,27.8,16.4,0000.0,0010.61,0005.22,0004.60
2021-10-31 23:30:00,,0829.1,5.00,0.00,26.0,25.2,00.0,35.0,27.8,16.4,0000.0,0011.41,0005.21,0004.60
2021-10-31 23:31:00,,0829.2,5.01,0.00,26.0,25.1,00.0,35.0,27.8,16.5,0000.0,0011.72,0005.22,0004.61
2021-10-31 23:32:00,,0829.2,5.00,0.00,26.0,25.1,00.0,35.0,27.8,16.4,0000.0,0011.86,0005.23,0004.61
2021-10-31 23:33:00,,0829.3,5.00,0.00,26.0,25.2,00.0,35.0,27.8,16.4,0000.0,0012.16,0005.28,0004.62
2021-10-31 23:34:00,,0829.2,5.00,0.00,26.0,25.2,00.0,35.0,27.8,16.5,0000.0,0012.48,0005.30,0004.63
2021-10-31 23:35:00,,0829.2,5.00,0.00,26.0,25.1,00.0,35.0,27.8,16.5,0000.0,0012.75,0005.31,0004.63
2021-10-31 23:36:00,,0829.3,5.00,0.00,26.0,25.1,00.0,35.0,27.8,16.6,0000.0,0012.91,0005.30,0004.63
2021-10-31 23:37:00,,0829.3,5.00,0.00,26.0,25.1,00.0,35.0,27.8,16.7,0000.0,0012.85,0005.32,0004.63
2021-10-31 23:38:00,,0829.3,5.00,0.00,26.0,25.1,00.0,35.0,27.8,16.7,0000.0,0013.12,0005.32,0004.63
2021-10-31 23:39:00,,0829.4,4.99,0.00,26.0,25.1,00.0,35.0,27.8,16.8,0000.0,0013.48,0005.34,0004.63
2021-10-31 23:40:00,,0829.3,5.01,0.00,26.0,25.1,00.0,35.0,27.8,16.8,0000.0,0013.50,0005.37,0004.63
2021-10-31 23:41:00,,0829.5,5.00,0.00,26.0,25.1,00.0,35.0,27.8,16.8,0000.0,0012.54,0005.42,0004.65
2021-10-31 23:42:00,,0829.5,5.00,0.00,26.0,25.1,00.0,35.0,27.8,16.9,0000.0,0012.48,0005.46,0004.65
2021-10-31 23:43:00,,0829.5,5.00,0.00,26.0,25.1,00.0,35.0,27.8,17.0,0000.0,0012.74,0005.48,0004.65
2021-10-31 23:44:00,,0829.6,4.99,0.00,26.0,25.1,00.0,35.0,27.8,17.0,0000.0,0012.93,0005.48,0004.65
2021-10-31 23:45:00,,0829.5,5.00,0.00,26.0,25.1,00.0,35.0,27.8,17.1,0000.0,0012.95,0005.46,0004.66
2021-10-31 23:46:00,,0829.5,5.00,0.00,26.0,25.1,00.0,35.0,27.9,17.1,0000.0,0012.67,0005.49,0004.66
2021-10-31 23:47:00,,0829.5,5.01,0.00,26.0,25.2,00.0,35.0,27.9,17.1,0000.0,0012.74,0005.49,0004.67
2021-10-31 23:48:00,,0829.5,4.99,0.00,26.0,25.2,00.0,35.0,27.9,17.0,0000.0,0012.84,0005.49,0004.67
2021-10-31 23:49:00,,0829.5,5.01,0.00,26.0,25.1,00.0,35.0,27.9,16.9,0000.0,0011.73,0005.45,0004.67
2021-10-31 23:50:00,,0829.5,5.01,0.00,26.0,25.1,00.0,35.0,27.9,17.0,0000.0,0011.73,0005.43,0004.67
2021-10-31 23:51:00,,0829.5,5.00,0.00,26.0,25.2,00.0,35.0,27.9,16.9,0000.0,0011.61,0005.38,0004.66
2021-10-31 23:52:00,,0829.5,4.99,0.00,26.0,25.1,00.0,35.0,27.9,16.9,0000.0,0011.53,0005.33,0004.65
2021-10-31 23:53:00,,0829.5,5.00,0.00,26.0,25.2,00.0,35.0,27.9,17.0,0000.0,0011.05,0005.28,0004.64
2021-10-31 23:54:00,,0829.5,5.00,0.00,26.0,25.2,00.0,35.0,27.9,17.2,0000.0,0010.66,0005.23,0004.63
2021-10-31 23:55:00,,0829.4,5.00,0.00,26.0,25.2,00.0,35.0,27.8,17.3,0000.0,0010.25,0005.21,0004.62
2021-10-31 23:56:00,,0829.5,5.01,0.00,26.0,25.2,00.0,35.0,27.9,17.3,0000.0,0009.83,0005.20,0004.62
2021-10-31 23:57:00,,0829.4,4.98,0.00,26.0,25.2,00.0,35.0,27.9,17.2,0000.0,0009.71,0005.17,0004.62
2021-10-31 23:58:00,,0829.4,5.00,0.00,26.0,25.2,00.0,35.0,27.9,17.2,0000.0,0009.96,0005.16,0004.62
2021-10-31 23:59:00,,0829.4,5.00,0.00,26.0,25.1,00.0,35.0,27.9,17.3,0000.0,0009.56,0005.11,0004.61
